Regional Weather Roundup
Issued by NWS

Home | Current Version | Previous Version | Text Only | Print | Product List | Glossary On
Versions: 1 2 3 4 5 6 7 8 9 10 11 12 13 14 15 16 17 18 19 20 21 22 23 24 25 26 27 28 29 30 31 32 33 34 35 36 37 38 39 40 41 42 43 44 45 46 47 48 49 50
000
ASUS43 KTOP 221708
RWRKS

WEATHER ROUNDUP FOR KANSAS
NATIONAL WEATHER SERVICE GOODLAND KS
1200 PM CDT WED MAR 22 2017

NOTE:  "FAIR" INDICATES FEW OR NO CLOUDS BELOW 12,000 FEET WITH NO
SIGNIFICANT WEATHER AND/OR OBSTRUCTIONS TO VISIBILITY.

KSZ001>006-013>018-027>032-041>047-221800-
NORTHWEST KANSAS

CITY           SKY/WX    TMP DP  RH WIND       PRES   REMARKS
GOODLAND       CLOUDY    45  30  55 SE18      30.14F
HAYS             N/A     47  25  42 E15       30.25F
HILL CITY      CLOUDY    46  26  45 SE13      30.24F
RUSSELL        CLOUDY    46  25  43 SE9       30.26F
$$

KSZ061>065-074>080-084>089-221800-
SOUTHWEST KANSAS

CITY           SKY/WX    TMP DP  RH WIND       PRES   REMARKS
DODGE CITY     CLOUDY    48  28  46 SE10      30.22F
ELKHART          N/A     50  31  48 SE16        N/A
GARDEN CITY    CLOUDY    48  30  49 SE13      30.20F
GREAT BEND     CLOUDY    48  25  40 E13       30.25F
LIBERAL        MOSUNNY   52  34  50 SE9       30.22S
PRATT          CLOUDY    45  26  45 E8        30.24F
$$

KSZ066>073-081>083-090>101-221800-
SOUTHEAST KANSAS

CITY           SKY/WX    TMP DP  RH WIND       PRES   REMARKS
CHANUTE        PTSUNNY   56  24  29 E15       30.28S
COFFEYVILLE    CLOUDY    54  34  46 E14       30.27R
HUTCHINSON     CLOUDY    52  27  38 E13       30.26F
MEDICINE LODGE   N/A     49  29  46 E9        30.23S
PARSONS        CLOUDY    54  29  38 VRB7G17   30.28R
WICHITA INTL   CLOUDY    52  30  43 SE16      30.25F
WICHITA JABRA  CLOUDY    51  30  44 SE14      30.25F
WICHITA MCCONL CLOUDY    51  29  41 SE13      30.25F
WINFIELD       CLOUDY    53  31  42 E14       30.25F
$$

KSZ007>012-019>026-033>040-048>060-102>105-221800-
NORTHEAST KANSAS

CITY           SKY/WX    TMP DP  RH WIND       PRES   REMARKS
CONCORDIA      MOSUNNY   48  24  39 E15G22    30.30F
EMPORIA        SUNNY     54  25  32 E15       30.29F
LAWRENCE       MOSUNNY   50  22  33 E13       30.35F
MANHATTAN      PTSUNNY   51  25  36 E13       30.32F
MARYSVILLE     SUNNY     48  23  37 SE12G18   30.34F
OLATHE IND     CLOUDY    50  23  34 E12       30.35S
OLATHE EXE     CLOUDY    50  25  37 E14G20    30.35R
SALINA         PTSUNNY   53  23  31 SE12      30.29F
TOPEKA BILLARD PTSUNNY   50  24  36 E9        30.34F
TOPEKA FORBES  CLOUDY    53  23  31 E12       30.33F
$$




USA.gov is the U.S. government's official web portal to all federal, state and local government web resources and services.